Simultaneous Nadir Overpasses (SNOs) Predictions

Prediction of SNOs between FY3D and AQUA Satellite Orbit:

Table of predicted SNOs for the next 14.0 days since TLE Epoch: 9/23/2023
Index Date (FY3D) Time (FY3D) Lat,Lon (FY3D) SZA (FY3D ) Date (AQUA) Time (AQUA) Lat,Lon (AQUA) SZA (AQUA ) Distance(km) Time Diff (sec)
1 09/25/2023 00:25:08 -78.85, -25.15 100.05 09/25/2023 00:25:15 -78.85, -25.11 100.06 0.94 7
2 09/25/2023 01:15:45 78.54, 144.21 79.55 09/25/2023 01:14:32 78.53, 144.29 79.56 1.72 73
3 09/27/2023 13:20:02 -79.08, 139.58 98.77 09/27/2023 13:20:57 -79.08, 139.64 98.79 1.36 55
4 09/27/2023 14:10:39 78.78, -51.00 80.84 09/27/2023 14:10:14 78.77, -50.91 80.84 2.17 25
5 09/30/2023 03:05:31 78.95, 114.17 82.04 09/30/2023 03:05:53 78.94, 114.24 82.02 1.76 22
6 09/30/2023 03:56:06 -78.55, -75.89 98.47 09/30/2023 03:55:07 -78.56, -75.91 98.46 0.42 59
7 10/02/2023 16:00:23 79.12, -80.75 83.25 10/02/2023 16:01:31 79.12, -80.72 83.23 0.52 68
8 10/02/2023 16:50:58 -78.73, 89.30 97.27 10/02/2023 16:50:45 -78.74, 89.21 97.26 2.05 13
9 10/05/2023 05:45:53 -79.02,-106.35 95.92 10/05/2023 05:46:24 -79.02,-106.27 95.94 1.89 31



Historial Predications of SNOs between FY3D and AQUA
